sat.trackr.live / text

‹ back to catalog

STARLINK-5344

NORAD 55494 · 2023-015AX

PAYLOAD ACTIVE UNKNOWN

§ Identity

Operator
Country
US
Launch date
2023-02-02
Launch site
AFETR
Launch vehicle
Mass (kg)
RCS (m²)

Purposes: comms

External: N2YO · Heavens-Above · Gunter

§ Orbital elements

Epoch: 2026-05-25T01:23:16.730592Z

Period
94.27 min
Inclination
43.0050°
Eccentricity
0.0001535
Mean motion
15.27591547 rev/d
Perigee alt
482.0 km
Apogee alt
484.1 km
Semi-major
6,861.2 km
B*
5.3793e-5
RAAN
268.5403°
Arg perigee
289.7310°
Mean anomaly
70.3376°
Rev number
18,227

§ Raw data

STARLINK-53441 55494U 23015AX  26145.05783253  .00001219  00000+0  53793-4 0  99922 55494  43.0050 268.5403 0001535 289.7310  70.3376 15.27591547182275

JSON: /api/v1/satellites/55494 · /tle

For live sub-satellite position, see the globe view (requires WebGL).

§ Visibility from observer

Set your observer location to see the next 7 days of passes ≥ 10°. The values pass through the URL so the page stays shareable.

No JS? Fill the form by hand. The geolocation button needs JavaScript.